User: anonymous   Login
Location: Bagnara
(41.0500°N, 14.7833°E)
Time: 19:24:49
(UTC+00:00)
Language:

FLOCK 4S 8 - Orbit

View from above orbital plane
View from above orbital plane
View from above satellite
View from above satellite

Ground track
Ground track

The orbit data is extracted from the following two-line orbital elements,

1 47474U 21006BP  22024.47298959  .00001582  00000-0  92188-4 0  9996
2 47474  97.4601  86.0069 0009979  75.9857 284.2483 15.13393392 55458
Epoch (UTC): 24 January 2022 11:21:06
Eccentricity: 0.0009979
inclination: 97.4601°
perigee height: 519 km
apogee height: 533 km
right ascension of ascending node: 86.0069°
argument of perigee: 75.9857°
revolutions per day: 15.13393392
mean anomaly at epoch: 284.2483°
orbit number at epoch: 5545

The dashed part of the orbit path shows where the satellite is in the earth's shadow,  

DLR